sat.trackr.live / text

‹ back to catalog

STARLINK-35605

NORAD 66150 · 2025-240E

PAYLOAD ACTIVE UNKNOWN

§ Identity

Operator
Country
US
Launch date
2025-10-25
Launch site
AFWTR
Launch vehicle
Mass (kg)
RCS (m²)

Purposes: comms

External: N2YO · Heavens-Above · Gunter

§ Orbital elements

Epoch: 2026-09-20T06:08:11.945184Z

Period
93.85 min
Inclination
53.1587°
Eccentricity
0.0001293
Mean motion
15.34407472 rev/d
Perigee alt
461.8 km
Apogee alt
463.6 km
Semi-major
6,840.8 km
B*
4.5473e-4
RAAN
236.5062°
Arg perigee
70.3291°
Mean anomaly
289.7851°
Rev number
5,181

§ Raw data

STARLINK-356051 66150U 25240E   26263.25569381  .00015022  00000+0  45473-3 0  99942 66150  53.1587 236.5062 0001293  70.3291 289.7851 15.34407472 51812

JSON: /api/v1/satellites/66150 · /tle

For live sub-satellite position, see the globe view (requires WebGL).

§ Visibility from observer

Set your observer location to see the next 7 days of passes ≥ 10°. The values pass through the URL so the page stays shareable.

No JS? Fill the form by hand. The geolocation button needs JavaScript.